Time,TemperatureF,DewpointF,PressureIn,WindDirection,WindDirectionDegrees,WindSpeedMPH,WindSpeedGustMPH,Humidity,HourlyPrecipIn,Conditions,Clouds,dailyrainin,SoftwareType,DateUTC
2013-03-01 00:09:00,29.1,24.6,30.18,NW,315,5.0,11.0,83,0.00,,---,0.00,VWS V14.01,2013-03-01 06:09:00,
2013-03-01 00:24:00,28.9,24.4,30.18,WNW,303,7.0,13.0,83,0.00,,---,0.00,VWS V14.01,2013-03-01 06:24:00,
2013-03-01 00:39:00,28.8,24.3,30.19,NW,316,2.0,11.0,83,0.00,,---,0.00,VWS V14.01,2013-03-01 06:39:00,
2013-03-01 00:54:00,28.7,24.2,30.18,NW,317,3.0,9.0,83,0.00,,---,0.00,VWS V14.01,2013-03-01 06:54:00,
2013-03-01 01:09:00,28.5,24.0,30.18,NW,305,7.0,9.0,83,0.00,,---,0.00,VWS V14.01,2013-03-01 07:09:00,
2013-03-01 01:24:00,28.3,24.1,30.18,NW,304,2.0,9.0,84,0.00,,---,0.00,VWS V14.01,2013-03-01 07:24:00,
2013-03-01 01:39:00,28.2,24.0,30.18,NW,308,6.0,7.0,84,0.00,,---,0.00,VWS V14.01,2013-03-01 07:39:00,
2013-03-01 01:54:00,28.0,23.8,30.18,NW,315,2.0,8.0,84,0.00,,---,0.00,VWS V14.01,2013-03-01 07:54:00,
2013-03-01 02:09:00,27.9,23.7,30.18,NW,311,0.0,6.0,84,0.00,,---,0.00,VWS V14.01,2013-03-01 08:09:00,
2013-03-01 02:24:00,27.8,23.6,30.18,NW,313,3.0,8.0,84,0.00,,---,0.00,VWS V14.01,2013-03-01 08:24:00,
2013-03-01 02:39:00,27.8,23.6,30.18,WNW,298,3.0,8.0,84,0.00,,---,0.00,VWS V14.01,2013-03-01 08:39:00,
2013-03-01 02:54:00,27.7,23.5,30.18,WNW,300,5.0,8.0,84,0.00,,---,0.00,VWS V14.01,2013-03-01 08:54:00,
2013-03-01 03:09:00,27.7,23.5,30.17,NW,305,3.0,9.0,84,0.00,,---,0.00,VWS V14.01,2013-03-01 09:09:00,
2013-03-01 03:24:00,27.7,23.2,30.17,WNW,296,3.0,8.0,83,0.00,,---,0.00,VWS V14.01,2013-03-01 09:24:00,
2013-03-01 03:39:00,27.6,23.1,30.18,NW,304,3.0,10.0,83,0.00,,---,0.00,VWS V14.01,2013-03-01 09:39:00,
2013-03-01 03:54:00,27.6,23.4,30.18,NW,316,4.0,9.0,84,0.00,,---,0.00,VWS V14.01,2013-03-01 09:54:00,
2013-03-01 04:09:00,27.5,23.3,30.18,WNW,293,8.0,12.0,84,0.00,,---,0.00,VWS V14.01,2013-03-01 10:09:00,
2013-03-01 04:24:00,27.5,23.3,30.18,NW,321,2.0,9.0,84,0.00,,---,0.00,VWS V14.01,2013-03-01 10:24:00,
2013-03-01 04:39:00,27.5,24.7,30.18,NW,309,5.0,12.0,89,0.00,,---,0.00,VWS V14.01,2013-03-01 10:39:00,
2013-03-01 04:55:00,27.6,22.5,30.19,NW,321,6.0,16.0,81,0.00,,---,0.00,VWS V14.01,2013-03-01 10:55:00,
2013-03-01 05:10:00,27.5,24.7,30.19,WNW,294,3.0,10.0,89,0.00,,---,0.00,VWS V14.01,2013-03-01 11:10:00,
2013-03-01 05:24:00,27.4,22.9,30.19,WNW,286,6.0,11.0,83,0.00,,---,0.00,VWS V14.01,2013-03-01 11:24:00,
2013-03-01 05:40:00,27.3,22.8,30.19,NW,306,7.0,9.0,83,0.00,,---,0.00,VWS V14.01,2013-03-01 11:40:00,
2013-03-01 05:54:00,27.2,22.7,30.20,NW,311,2.0,11.0,83,0.00,,---,0.00,VWS V14.01,2013-03-01 11:54:00,
2013-03-01 06:10:00,27.2,22.7,30.20,WNW,302,6.0,9.0,83,0.00,,---,0.00,VWS V14.01,2013-03-01 12:10:00,
2013-03-01 06:24:00,27.1,22.6,30.20,NW,325,1.0,13.0,83,0.00,,---,0.00,VWS V14.01,2013-03-01 12:24:00,
2013-03-01 06:40:00,27.0,22.5,30.20,WNW,299,6.0,11.0,83,0.00,,---,0.00,VWS V14.01,2013-03-01 12:40:00,
2013-03-01 06:54:00,27.0,22.5,30.20,NW,318,7.0,10.0,83,0.00,,---,0.00,VWS V14.01,2013-03-01 12:54:00,
2013-03-01 07:09:00,26.9,22.4,30.20,NNW,339,5.0,11.0,83,0.00,,---,0.00,VWS V14.01,2013-03-01 13:09:00,
2013-03-01 07:25:00,26.9,22.4,30.20,NW,323,4.0,13.0,83,0.00,,---,0.00,VWS V14.01,2013-03-01 13:25:00,
2013-03-01 07:40:00,26.8,22.3,30.21,NW,317,5.0,11.0,83,0.00,,---,0.00,VWS V14.01,2013-03-01 13:40:00,
2013-03-01 07:54:00,26.7,22.2,30.21,NNW,335,4.0,11.0,83,0.00,,---,0.00,VWS V14.01,2013-03-01 13:54:00,
2013-03-01 08:10:00,26.7,22.2,30.21,NW,325,1.0,11.0,83,0.00,,---,0.00,VWS V14.01,2013-03-01 14:10:00,
2013-03-01 08:24:00,26.7,22.2,30.22,NNW,337,4.0,10.0,83,0.00,,---,0.00,VWS V14.01,2013-03-01 14:24:00,
2013-03-01 08:40:00,26.8,22.3,30.22,NNW,333,4.0,11.0,83,0.00,,---,0.00,VWS V14.01,2013-03-01 14:40:00,
2013-03-01 08:54:00,26.9,22.4,30.23,NW,323,1.0,10.0,83,0.00,,---,0.00,VWS V14.01,2013-03-01 14:54:00,
2013-03-01 09:09:00,27.1,22.6,30.23,NNW,331,5.0,11.0,83,0.00,,---,0.00,VWS V14.01,2013-03-01 15:09:00,
2013-03-01 09:24:00,27.4,22.6,30.23,NW,325,4.0,12.0,82,0.00,,---,0.00,VWS V14.01,2013-03-01 15:24:00,
2013-03-01 09:39:00,27.6,22.8,30.23,WNW,303,7.0,13.0,82,0.00,,---,0.00,VWS V14.01,2013-03-01 15:39:00,
2013-03-01 09:55:00,27.6,22.8,30.24,NW,325,6.0,14.0,82,0.00,,---,0.00,VWS V14.01,2013-03-01 15:55:00,
2013-03-01 10:09:00,27.4,22.9,30.24,NNW,329,8.0,13.0,83,0.00,,---,0.00,VWS V14.01,2013-03-01 16:09:00,
2013-03-01 10:25:00,27.4,23.2,30.24,NNW,331,6.0,16.0,84,0.00,,---,0.00,VWS V14.01,2013-03-01 16:25:00,
2013-03-01 10:40:00,27.4,23.2,30.24,WNW,301,12.0,13.0,84,0.00,,---,0.00,VWS V14.01,2013-03-01 16:40:00,
2013-03-01 10:55:00,27.8,23.6,30.24,NNW,327,8.0,12.0,84,0.00,,---,0.00,VWS V14.01,2013-03-01 16:55:00,
2013-03-01 11:09:00,28.3,23.8,30.24,NNW,331,8.0,13.0,83,0.00,,---,0.00,VWS V14.01,2013-03-01 17:09:00,
2013-03-01 11:25:00,28.8,24.0,30.23,NNW,327,4.0,16.0,82,0.00,,---,0.00,VWS V14.01,2013-03-01 17:25:00,
2013-03-01 11:40:00,29.2,23.8,30.24,NW,321,9.0,15.0,80,0.00,,---,0.00,VWS V14.01,2013-03-01 17:40:00,
2013-03-01 11:54:00,29.6,23.6,30.24,NW,310,7.0,13.0,78,0.00,,---,0.00,VWS V14.01,2013-03-01 17:54:00,
2013-03-01 12:09:00,29.8,24.1,30.24,NNW,332,5.0,13.0,79,0.00,,---,0.00,VWS V14.01,2013-03-01 18:09:00,
2013-03-01 12:25:00,29.9,23.3,30.24,NNW,341,5.0,17.0,76,0.00,,---,0.00,VWS V14.01,2013-03-01 18:25:00,
2013-03-01 12:39:00,30.1,23.1,30.23,NNW,346,11.0,16.0,75,0.00,,---,0.00,VWS V14.01,2013-03-01 18:39:00,
2013-03-01 12:54:00,30.2,23.2,30.23,NNW,329,8.0,17.0,75,0.00,,---,0.00,VWS V14.01,2013-03-01 18:54:00,
2013-03-01 13:10:00,30.2,23.2,30.23,NNW,333,9.0,16.0,75,0.00,,---,0.00,VWS V14.01,2013-03-01 19:10:00,
2013-03-01 13:25:00,30.4,23.1,30.23,NNE,22,11.0,15.0,74,0.00,,---,0.00,VWS V14.01,2013-03-01 19:25:00,
2013-03-01 13:40:00,30.2,23.2,30.23,NNW,342,12.0,15.0,75,0.00,,---,0.00,VWS V14.01,2013-03-01 19:40:00,
2013-03-01 13:54:00,30.3,23.3,30.23,North,355,9.0,15.0,75,0.00,,---,0.00,VWS V14.01,2013-03-01 19:54:00,
2013-03-01 14:09:00,30.0,23.4,30.23,North,360,9.0,14.0,76,0.00,,---,0.00,VWS V14.01,2013-03-01 20:09:00,
2013-03-01 14:25:00,29.9,23.6,30.23,NNW,327,4.0,15.0,77,0.00,,---,0.00,VWS V14.01,2013-03-01 20:25:00,
2013-03-01 14:39:00,29.9,23.6,30.23,NNW,344,4.0,13.0,77,0.00,,---,0.00,VWS V14.01,2013-03-01 20:39:00,
2013-03-01 14:54:00,29.8,23.2,30.24,North,5,6.0,16.0,76,0.00,,---,0.00,VWS V14.01,2013-03-01 20:54:00,
2013-03-01 15:10:00,30.1,23.8,30.24,NW,325,8.0,12.0,77,0.00,,---,0.00,VWS V14.01,2013-03-01 21:10:00,
2013-03-01 15:25:00,30.0,23.4,30.24,North,349,5.0,12.0,76,0.00,,---,0.00,VWS V14.01,2013-03-01 21:25:00,
2013-03-01 15:39:00,30.2,23.6,30.24,NNW,345,7.0,11.0,76,0.00,,---,0.00,VWS V14.01,2013-03-01 21:39:00,
2013-03-01 15:55:00,29.9,24.2,30.25,NNW,329,8.0,13.0,79,0.00,,---,0.00,VWS V14.01,2013-03-01 21:55:00,
2013-03-01 16:10:00,29.3,23.9,30.25,NW,319,6.0,15.0,80,0.00,,---,0.00,VWS V14.01,2013-03-01 22:10:00,
2013-03-01 16:25:00,29.5,23.5,30.25,NNW,338,2.0,12.0,78,0.00,,---,0.00,VWS V14.01,2013-03-01 22:25:00,
2013-03-01 16:40:00,29.3,23.3,30.25,NNW,327,5.0,12.0,78,0.00,,---,0.00,VWS V14.01,2013-03-01 22:40:00,
2013-03-01 16:54:00,29.4,23.1,30.25,NW,322,7.0,12.0,77,0.00,,---,0.00,VWS V14.01,2013-03-01 22:54:00,
2013-03-01 17:09:00,29.4,22.8,30.26,NW,324,6.0,12.0,76,0.00,,---,0.00,VWS V14.01,2013-03-01 23:09:00,
2013-03-01 17:24:00,29.0,22.4,30.26,NNW,332,6.0,11.0,76,0.00,,---,0.00,VWS V14.01,2013-03-01 23:24:00,
2013-03-01 17:40:00,28.8,22.2,30.26,NNW,345,7.0,10.0,76,0.00,,---,0.00,VWS V14.01,2013-03-01 23:40:00,
2013-03-01 17:55:00,28.2,22.5,30.27,NNW,334,5.0,10.0,79,0.00,,---,0.00,VWS V14.01,2013-03-01 23:55:00,
2013-03-01 18:10:00,27.7,22.4,30.27,NW,325,8.0,9.0,80,0.00,,---,0.00,VWS V14.01,2013-03-02 00:10:00,
2013-03-01 18:25:00,27.2,22.4,30.28,NW,319,5.0,9.0,82,0.00,,---,0.00,VWS V14.01,2013-03-02 00:25:00,
2013-03-01 18:40:00,27.1,22.6,30.28,NNW,330,2.0,10.0,83,0.00,,---,0.00,VWS V14.01,2013-03-02 00:40:00,
2013-03-01 18:55:00,27.0,22.8,30.29,NW,324,5.0,8.0,84,0.00,,---,0.00,VWS V14.01,2013-03-02 00:55:00,
2013-03-01 19:09:00,27.1,23.2,30.29,NW,314,4.0,9.0,85,0.00,,---,0.00,VWS V14.01,2013-03-02 01:09:00,
2013-03-01 19:25:00,27.2,23.3,30.29,NNW,329,5.0,9.0,85,0.00,,---,0.00,VWS V14.01,2013-03-02 01:25:00,
2013-03-01 19:40:00,27.2,23.3,30.30,NNW,329,6.0,9.0,85,0.00,,---,0.00,VWS V14.01,2013-03-02 01:40:00,
2013-03-01 19:55:00,27.3,23.4,30.30,NNW,330,5.0,9.0,85,0.00,,---,0.00,VWS V14.01,2013-03-02 01:55:00,
2013-03-01 20:10:00,27.3,23.1,30.30,NW,325,6.0,8.0,84,0.00,,---,0.00,VWS V14.01,2013-03-02 02:10:00,
2013-03-01 20:25:00,27.2,23.0,30.30,NNW,331,2.0,9.0,84,0.00,,---,0.00,VWS V14.01,2013-03-02 02:25:00,
2013-03-01 20:39:00,27.2,22.7,30.30,NW,320,2.0,9.0,83,0.00,,---,0.00,VWS V14.01,2013-03-02 02:39:00,
2013-03-01 20:55:00,27.0,22.5,30.30,NW,320,4.0,7.0,83,0.00,,---,0.00,VWS V14.01,2013-03-02 02:55:00,
2013-03-01 21:09:00,26.8,22.0,30.30,NNW,335,3.0,8.0,82,0.00,,---,0.00,VWS V14.01,2013-03-02 03:09:00,
2013-03-01 21:25:00,26.6,22.1,30.31,NW,325,3.0,7.0,83,0.00,,---,0.00,VWS V14.01,2013-03-02 03:25:00,
2013-03-01 21:40:00,26.4,22.0,30.31,NNW,333,8.0,8.0,83,0.00,,---,0.00,VWS V14.01,2013-03-02 03:40:00,
2013-03-01 21:55:00,26.5,22.0,30.32,NNW,339,6.0,9.0,83,0.00,,---,0.00,VWS V14.01,2013-03-02 03:55:00,
2013-03-01 22:10:00,26.6,22.1,30.31,North,351,5.0,10.0,83,0.00,,---,0.00,VWS V14.01,2013-03-02 04:10:00,
2013-03-01 22:25:00,26.6,22.1,30.32,NNW,347,6.0,11.0,83,0.00,,---,0.00,VWS V14.01,2013-03-02 04:25:00,
2013-03-01 22:40:00,26.5,22.0,30.32,NNW,335,5.0,9.0,83,0.00,,---,0.00,VWS V14.01,2013-03-02 04:40:00,
2013-03-01 22:55:00,26.2,21.8,30.32,NNW,331,6.0,7.0,83,0.00,,---,0.00,VWS V14.01,2013-03-02 04:55:00,
2013-03-01 23:10:00,25.9,21.5,30.32,NNW,333,3.0,6.0,83,0.00,,---,0.00,VWS V14.01,2013-03-02 05:10:00,
2013-03-01 23:25:00,25.6,21.5,30.32,NNW,339,4.0,8.0,84,0.00,,---,0.00,VWS V14.01,2013-03-02 05:25:00,
2013-03-01 23:40:00,25.5,21.4,30.32,NNW,340,4.0,7.0,84,0.00,,---,0.00,VWS V14.01,2013-03-02 05:40:00,
2013-03-01 23:55:00,25.5,21.4,30.32,NNW,340,1.0,7.0,84,0.00,,---,0.00,VWS V14.01,2013-03-02 05:55:00,